Regional Weather Roundup
Issued by NWS

Home | Current Version | Previous Version | Text Only | Print | Product List | Glossary Off
Versions: 1 2 3 4 5 6 7 8 9 10 11 12 13 14 15 16 17 18 19 20 21 22 23 24 25 26 27 28 29 30 31 32 33 34 35 36 37 38 39 40 41 42 43 44 45 46 47 48 49 50

000
ASUS43 KDMX 262201
RWRIA

WEATHER ROUNDUP FOR IOWA
NATIONAL WEATHER SERVICE DES MOINES IA
500 PM CDT WED JUL 26 2017

NOTE: "FAIR" INDICATES FEW OR NO CLOUDS BELOW 12,000 FEET WITH NO
SIGNIFICANT WEATHER AND/OR OBSTRUCTIONS TO VISIBILITY.

* - THESE STATIONS ARE NOT NWS STATIONS...THUS NOT UNDER NWS
QUALITY CONTROL.  THEY ALSO DO NOT REPORT WEATHER SUCH
AS PRECIPITATION OR FOG.

IAZ001>003-012>014-020>022-031>034-043>046-262300-
   NORTHWEST IOWA

CITY           SKY/WX    TMP DP  RH WIND       PRES   REMARKS
CARROLL *      CLOUDY    77  73  88 CALM      29.99S
CHEROKEE *     MOSUNNY   82  70  66 E6        29.99F HX  86
DENISON *      CLOUDY    77  73  88 CALM      30.01S
ORANGE CITY *  MOSUNNY   81  70  69 NE7       30.02R HX  84
SHELDON *      PTSUNNY   79  72  78 N8        30.01S HX  82
SIOUX CITY     MOSUNNY   86  72  62 MISG      29.98F HX  92
SPENCER        LGT RAIN  79  71  76 S5        30.01S HX  82
STORM LAKE *   SUNNY     79  70  73 VRB6      30.01S HX  81
$$

IAZ055>058-069>071-079>083-090>094-262300-
   SOUTHWEST IOWA

CITY           SKY/WX    TMP DP  RH WIND       PRES   REMARKS
ATLANTIC *     HVY RAIN  73  73 100 N5        29.99S VSB 1/2
AUDUBON *      CLOUDY    77  72  83 SW6       30.00F
CLARINDA *     CLOUDY    77  75  94 CALM      29.99F
COUNCIL BLFS * DRIZZLE   73  73 100 NE6       29.99S
CRESTON *      CLOUDY    75  75 100 CALM      30.00F
HARLAN  *      LGT RAIN  73  73 100 S3        30.03S
LAMONI         CLOUDY    79  74  84 CALM      30.00S HX  82
RED OAK *      CLOUDY    77  75  94 E3        29.98F FOG
SHENANDOAH *   CLOUDY    77  75  94 NE3       29.97F
$$

IAZ047>049-059>061-072>074-084-262300-
   CENTRAL IOWA

CITY           SKY/WX    TMP DP  RH WIND       PRES   REMARKS
AMES           CLOUDY    75  75 100 NE7       29.98F
ANKENY *       CLOUDY    77  73  88 CALM      29.98F
BOONE *        CLOUDY    73  72  94 NE8       29.98F
CHARITON *     CLOUDY    79  73  83 W7        29.99R HX  82
DES MOINES     CLOUDY    79  74  84 SE6       29.96F HX  82
GRINNELL*      CLOUDY    79  73  81 SW3       29.99F HX  82
KNOXVILLE *    CLOUDY    79  73  83 CALM      29.96F HX  82
MARSHALLTOWN   CLOUDY    79  72  79 CALM      29.98F HX  82
NEWTON *       CLOUDY    77  72  83 CALM      29.98F
PELLA *        CLOUDY    80  71  74 CALM      29.98F HX  83
PERRY *        CLOUDY    78  76  92 CALM      29.99S HX  80
$$

IAZ004>006-015-016-023>025-035-036-262300-
   NORTH CENTRAL IOWA

CITY           SKY/WX    TMP DP  RH WIND       PRES   REMARKS
ALGONA *       CLOUDY    79  72  78 S8        30.00F HX  82
CLARION *      CLOUDY    73  73 100 NW5       30.00F
ESTHERVILLE    CLOUDY    82  72  71 NE10      30.00S HX  87
FORT DODGE *   CLOUDY    73  68  83 E3        30.01F
MASON CITY     CLOUDY    75  66  73 SW6       30.01S
FOREST CITY *    N/A     77  70  78 S6        30.00S
WEBSTER CITY * CLOUDY    73  72  94 SE5       29.98F FOG
IOWA FALLS *   PTSUNNY   78  71  78 SE3       30.01S HX  80
$$

IAZ007>011-017>019-026>030-037>042-050>054-066-262300-
   NORTHEAST IOWA

CITY           SKY/WX    TMP DP  RH WIND       PRES   REMARKS
CEDAR RAPIDS   HVY RAIN  79  77  94 W9        29.96S VSB 1   HX  83
CHARLES CITY * CLOUDY    77  73  88 VRB3      29.99F
DECORAH *      CLOUDY    77  72  83 SE3       29.97F
DUBUQUE        CLOUDY    79  74  84 NE6       29.97F HX  82
MONTICELLO *   CLOUDY    82  75  78 CALM      29.95F HX  89
OELWEIN *      CLOUDY    75  70  83 E8        29.98F
WATERLOO       CLOUDY    78  69  73 E8        29.96F HX  80
$$

IAZ064-065-067-068-078-262300-
   EAST CENTRAL IOWA

CITY           SKY/WX    TMP DP  RH WIND       PRES   REMARKS
DAVENPORT      CLOUDY    83  76  79 S8        29.97F HX  91
IOWA CITY      LGT RAIN  73  69  87 N6        29.97S
MUSCATINE *    LGT RAIN  77  72  83 W17G24    29.96R
QUAD CITIES    CLOUDY    85  77  77 SE5       29.93F HX  95
$$

IAZ062-063-075>077-085>089-095>099-262300-
   SOUTHEAST IOWA

CITY           SKY/WX    TMP DP  RH WIND       PRES   REMARKS
BURLINGTON     CLOUDY    85  78  80 CALM      29.94F HX  96
FAIRFIELD *    CLOUDY    82  75  78 N7        29.95F HX  89
FORT MADISON * HVY RAIN  82  79  89 NE8       29.95S VSB 1   HX  93
KEOKUK *       CLOUDY    84  77  79 W12G18    29.93S HX  94
OSKALOOSA *    PTSUNNY   80  73  79 NW8       29.97F HX  84
OTTUMWA        CLOUDY    85  72  65 NW10      29.95F HX  91
$$

ABBREVIATIONS USED IN REMARKS
   TC - TEMPERATURES IN CELSIUS
  WCI - WIND CHILL INDEX
   HX - HEAT INDEX
  VSB - VISIBILITY
$$





USA.gov is the U.S. government's official web portal to all federal, state and local government web resources and services.